GW3736 Weather Reports


time (UTC)temp
C
wind
direction
speed
KPH
gust
KPH
rain 1hr
cm
rain 24hr
cm
rain mn
cm
humidity
%
barometer
mb
20260510204527 15 322 4.8 11.3 0.00 0.00 0.00 33 1013.7
20260510203523 15 316 9.7 22.5 0.00 0.00 0.00 34 1013.9
20260510202519 15 290 6.4 14.5 0.00 0.00 0.00 33 1013.8
20260510201535 15 297 8.0 24.1 0.00 0.00 0.00 36 1014.0
20260510200531 15 309 3.2 11.3 0.00 0.00 0.00 38 1014.2
20260510195527 15 300 4.8 11.3 0.00 0.00 0.00 39 1014.1
20260510194543 15 117 8.0 16.1 0.00 0.00 0.00 44 1014.3
20260510193519 14 229 3.2 12.9 0.00 0.00 0.00 44 1014.2
20260510192535 15 93 4.8 12.9 0.00 0.05 0.00 41 1014.3
20260510191531 15 134 4.8 11.3 0.00 0.13 0.00 43 1014.3
20260510190527 15 171 3.2 9.7 0.00 0.13 0.00 42 1014.3
20260510185523 15 112 6.4 17.7 0.00 0.15 0.00 43 1014.1
20260510184519 15 148 6.4 17.7 0.00 0.15 0.00 45 1014.2
20260510183535 15 112 6.4 12.9 0.00 0.15 0.00 41 1014.1
20260510182531 15 144 4.8 16.1 0.00 0.15 0.00 45 1014.1
20260510181527 15 123 9.7 17.7 0.00 0.15 0.00 47 1013.9
20260510180524 15 110 3.2 9.7 0.00 0.15 0.00 47 1013.9
20260510175519 15 38 1.6 6.4 0.00 0.15 0.00 42 1013.9
20260510174535 15 110 4.8 12.9 0.00 0.15 0.00 43 1013.9
20260510173652 15 150 4.8 9.7 0.00 0.15 0.00 44 1013.9
20260510172547 15 141 4.8 12.9 0.00 0.15 0.00 42 1014.2
20260510171523 15 232 3.2 9.7 0.00 0.15 0.00 36 1014.1
20260510170519 15 321 1.6 9.7 0.00 0.15 0.00 37 1014.1
20260510165555 15 301 6.4 12.9 0.00 0.15 0.00 40 1014.1
20260510164531 15 154 3.2 6.4 0.00 0.15 0.00 41 1014.1
20260510163547 15 290 6.4 16.1 0.00 0.15 0.00 36 1014.0
20260510162523 14 279 6.4 14.5 0.00 0.15 0.00 37 1014.0
20260510161519 14 312 4.8 11.3 0.00 0.15 0.00 40 1013.9
20260510160515 14 329 3.2 11.3 0.00 0.15 0.00 41 1013.7
20260510155531 13 294 8.0 16.1 0.00 0.15 0.00 40 1013.7
20260510154527 13 311 4.8 14.5 0.00 0.15 0.00 42 1013.7
20260510153524 13 290 1.6 4.8 0.00 0.15 0.00 43 1013.6
20260510152520 13 288 4.8 11.3 0.00 0.15 0.00 45 1013.5
20260510151515 13 238 1.6 4.8 0.00 0.15 0.00 47 1013.5
20260510150552 12 295 3.2 9.7 0.00 0.15 0.00 47 1013.3
20260510145528 12 305 3.2 6.4 0.00 0.15 0.00 47 1013.4
20260510144524 12 283 6.4 14.5 0.00 0.15 0.00 47 1013.3
20260510143520 11 293 6.4 14.5 0.00 0.15 0.00 47 1013.2
20260510142516 11 280 6.4 12.9 0.00 0.15 0.00 47 1013.1
20260510141532 11 324 3.2 11.3 0.00 0.15 0.00 50 1013.2
20260510140528 11 276 4.8 11.3 0.00 0.15 0.00 49 1013.2
20260510135523 11 10 1.6 6.4 0.00 0.15 0.00 52 1013.0
20260510134519 10 310 4.8 9.7 0.00 0.15 0.00 53 1013.0
20260510133535 10 322 1.6 4.8 0.00 0.15 0.00 53 1013.0
20260510132530 10 331 3.2 6.4 0.00 0.15 0.00 55 1012.7
20260510131527 10 328 4.8 11.3 0.00 0.15 0.00 56 1012.6
20260510130523 9 350 1.6 4.8 0.00 0.15 0.00 58 1012.5
20260510125519 9 334 3.2 9.7 0.00 0.15 0.00 61 1012.4
20260510124534 8 352 1.6 4.8 0.00 0.15 0.00 62 1012.4
20260510123531 8 325 4.8 11.3 0.00 0.15 0.00 64 1012.2
20260510122527 8 327 1.6 6.4 0.00 0.15 0.00 65 1012.2
20260510121543 8 325 4.8 11.3 0.00 0.15 0.00 67 1012.1
20260510120518 7 321 1.6 6.4 0.00 0.15 0.00 67 1011.9
20260510115535 7 324 1.6 4.8 0.00 0.15 0.00 69 1011.7
20260510114531 7 331 1.6 6.4 0.00 0.15 0.00 71 1011.6
20260510113607 6 293 1.6 4.8 0.00 0.15 0.00 73 1011.5
20260510112523 6 320 3.2 4.8 0.00 0.15 0.00 73 1011.3
20260510111519 6 298 1.6 4.8 0.00 0.15 0.00 74 1011.2
20260510110535 5 309 0.0 1.6 0.00 0.15 0.00 74 1011.1
20260510105531 5 318 1.6 3.2 0.00 0.15 0.00 75 1011.0
20260510104527 5 312 0.0 1.6 0.00 0.15 0.00 75 1010.8
20260510103543 5 311 0.0 1.6 0.00 0.15 0.00 73 1010.7
20260510102539 5 0.0 0.0 0.00 0.15 0.00 72 1010.5
20260510101535 5 0.0 0.0 0.00 0.15 0.00 72 1010.5
20260510100531 5 314 0.0 1.6 0.00 0.15 0.00 72 1010.3
20260510095527 5 0.0 0.0 0.00 0.15 0.00 72 1010.3
20260510094523 5 0.0 0.0 0.00 0.15 0.00 72 1010.2
20260510093519 6 320 1.6 3.2 0.00 0.15 0.00 72 1010.1
20260510092515 6 326 1.6 1.6 0.00 0.15 0.00 71 1009.9
20260510091531 6 326 1.6 3.2 0.00 0.15 0.00 71 1009.7
20260510090527 6 326 1.6 3.2 0.00 0.15 0.00 71 1009.5
20260510085523 6 340 1.6 3.2 0.00 0.15 0.00 70 1009.3
20260510084519 6 0.0 0.0 0.00 0.15 0.00 70 1009.1
20260510083535 6 30 1.6 4.8 0.00 0.15 0.00 70 1008.8
20260510082531 6 11 1.6 3.2 0.00 0.15 0.00 70 1008.8
20260510081527 7 9 1.6 4.8 0.00 0.15 0.00 69 1008.5
20260510080524 7 20 1.6 4.8 0.00 0.15 0.00 69 1008.3
20260510075520 7 24 1.6 3.2 0.00 0.15 0.00 68 1007.9
20260510074535 7 18 1.6 4.8 0.00 0.15 0.00 68 1007.9
20260510073531 7 9 3.2 11.3 0.00 0.15 0.00 68 1007.8
20260510072527 7 29 1.6 9.7 0.00 0.15 0.00 67 1007.7
20260510071523 7 53 4.8 9.7 0.00 0.15 0.00 67 1007.5
20260510070519 8 53 3.2 11.3 0.00 0.15 0.00 67 1007.5
20260510065555 8 34 3.2 9.7 0.00 0.15 0.00 67 1007.4
20260510064531 8 35 3.2 11.3 0.00 0.15 0.00 67 1007.5
20260510063527 8 50 1.6 6.4 0.00 0.15 0.00 66 1007.3
20260510062523 9 59 3.2 12.9 0.00 0.15 0.00 65 1007.3
20260510061519 10 26 3.2 11.3 0.00 0.15 0.00 63 1007.0
20260510060535 10 26 3.2 12.9 0.00 0.15 0.00 61 1006.8
20260510055531 10 4 0.0 4.8 0.00 0.15 0.00 58 1006.7
20260510054527 11 331 0.0 1.6 0.00 0.15 0.00 58 1006.3
20260510053523 11 342 0.0 1.6 0.00 0.15 0.00 58 1006.3
20260510052519 11 3 0.0 4.8 0.00 0.15 0.00 57 1006.0
20260510051535 11 305 0.0 3.2 0.00 0.15 0.00 56 1006.0
20260510050550 11 351 0.0 3.2 0.00 0.15 0.00 56 1005.7
20260510045527 11 1 1.6 4.8 0.00 0.15 0.00 56 1005.6
20260510044603 11 335 1.6 4.8 0.00 0.15 0.00 55 1005.4
20260510043518 12 349 1.6 4.8 0.00 0.15 0.00 55 1005.4
20260510042534 12 331 1.6 6.4 0.00 0.15 0.00 55 1005.2
20260510041530 12 316 1.6 4.8 0.00 0.15 0.00 55 1005.0
20260510040546 12 298 1.6 4.8 0.00 0.15 0.00 54 1004.9
20260510035522 12 342 3.2 9.7 0.00 0.15 0.15 55 1005.0
20260510034518 12 13 3.2 11.3 0.00 0.15 0.15 55 1004.7
20260510033534 13 356 3.2 9.7 0.00 0.15 0.15 55 1004.5
20260510032530 13 334 4.8 14.5 0.00 0.15 0.15 54 1004.3
20260510031526 13 337 3.2 11.3 0.00 0.15 0.15 55 1004.1
20260510030521 13 337 4.8 11.3 0.00 0.15 0.15 56 1004.0
20260510025518 14 352 4.8 12.9 0.00 0.15 0.15 56 1003.9
20260510024554 15 342 3.2 14.5 0.00 0.15 0.15 54 1003.6
20260510023529 15 352 4.8 11.3 0.00 0.15 0.15 51 1003.3
20260510022525 15 353 3.2 12.9 0.00 0.15 0.15 50 1002.8
20260510021521 15 330 4.8 16.1 0.00 0.15 0.15 51 1002.4
20260510020517 15 329 0.0 3.2 0.00 0.15 0.15 51 1002.0
20260510015533 16 340 0.0 1.6 0.00 0.15 0.15 50 1001.8
20260510014609 16 0.0 0.0 0.00 0.15 0.15 49 1001.5
20260510013525 16 340 0.0 3.2 0.00 0.15 0.15 49 1001.2
20260510012521 16 333 0.0 3.2 0.00 0.15 0.15 48 1001.0
20260510011516 17 327 1.6 6.4 0.00 0.15 0.15 46 1000.9
20260510010532 17 327 3.2 6.4 0.00 0.15 0.15 46 1000.7
20260510005528 17 337 3.2 9.7 0.00 0.15 0.15 45 1000.6
20260510004524 17 329 3.2 6.4 0.00 0.15 0.15 44 1000.2
20260510003520 18 325 4.8 16.1 0.00 0.15 0.15 43 1000.3
20260510002536 18 318 8.0 17.7 0.00 0.15 0.15 41 1000.1
20260510001532 18 309 8.0 16.1 0.00 0.15 0.15 40 1000.0
20260510000527 18 297 11.3 27.4 0.00 0.15 0.15 39 999.9
20260509235523 19 291 12.9 27.4 0.00 0.15 0.15 38 999.9
20260509234519 19 300 11.3 25.7 0.00 0.15 0.15 37 999.8
20260509233536 19 296 14.5 29.0 0.00 0.15 0.15 36 999.7
20260509232531 20 299 17.7 40.2 0.00 0.15 0.15 36 999.5
20260509231527 20 294 12.9 27.4 0.00 0.15 0.15 36 999.4
20260509230523 20 289 19.3 40.2 0.00 0.15 0.15 35 999.2
20260509225519 20 281 14.5 33.8 0.00 0.15 0.15 36 999.0
20260509224515 20 296 19.3 40.2 0.00 0.15 0.15 38 998.7
20260509223531 20 279 14.5 25.7 0.00 0.15 0.15 37 998.6
20260509222527 20 278 12.9 33.8 0.00 0.15 0.15 38 998.4
20260509221523 20 277 20.9 35.4 0.00 0.15 0.15 37 998.4
20260509220519 20 274 20.9 37.0 0.00 0.15 0.15 37 998.1
20260509215536 20 299 19.3 38.6 0.00 0.15 0.15 36 997.9
20260509214530 20 287 19.3 37.0 0.00 0.15 0.15 38 997.7
20260509213526 20 289 14.5 29.0 0.00 0.15 0.15 40 997.6
20260509212521 20 284 17.7 27.4 0.00 0.15 0.15 40 997.7
20260509211518 20 292 12.9 24.1 0.00 0.15 0.15 47 997.8
20260509210554 20 296 12.9 33.8 0.00 0.15 0.15 53 997.8
20260509205550 19 296 12.9 29.0 0.00 0.15 0.15 53 998.1